カタログに戻る

STARLINK-37098

運用中通信VLEO
NORAD 68192·PAYLOAD·🇺🇸 United States

打ち上げ Mar 14, 2026 から Vandenberg Space Force Base

Loading…

次のパス (今後24時間)

TLE

最新Source: CelesTrak SupGP

元期: Sep 15, 2026, 03:53 UTC

1 68192C 26050AB  26258.16229167 -.00013984  00000+0 -41327-3 0  2580
2 68192  53.1566 102.6456 0001096  88.3589  99.7615 15.34388821    16

AllMySatでSTARLINK-37098をリアルタイム追跡

Download on the App Store